Weather History for Defuniak Springs, Defuniak Sp, FL

Change the Weather History Date:

Friday, July 4, 2014

  Actual Average (KCEW) Record (KCEW)
Temperature  
Mean Temperature 78 °F -  
Max Temperature 88 °F 91 °F 98 °F (1979)
Min Temperature 67 °F 70 °F 64 °F (2000)
Cooling Degree Days 12    
Growing Degree Days 28 (Base 50)    
Moisture  
Dew Point 61 °F    
Average Humidity 59    
Maximum Humidity 86    
Minimum Humidity 33    
Precipitation  
Precipitation 0.00 in - - ()
Sea Level Pressure  
Sea Level Pressure 30.12 in    
Wind  
Wind Speed 6 mph (NNW)    
Max Wind Speed 10 mph    
Max Gust Speed 16 mph    
Visibility 10 miles    
Events      
Averages and records for this station are not official NWS values.
T = Trace of Precipitation, MM = Missing Value Source: NWS Daily Summary

Daily Weather History Graph

Daily Weather History Graph

Search for Another Location

Airport:

Trip Planner

Search our weather history database for the weather conditions in past years. The results will help you decide how hot, cold, wet, or windy it might be!

Date:

Astronomy

Jul. 04, 2014 Rise Set
Actual Time 5:46 AM CDT 7:51 PM CDT
Civil Twilight 5:19 AM CDT 8:18 PM CDT
Nautical Twilight 4:45 AM CDT 8:52 PM CDT
Astronomical Twilight 4:09 AM CDT 9:28 PM CDT
Moon 12:13 PM CDT (7/4) No Moon Set
Length of Visible Light 14h 59m
Length of Day
14h 04m
Waxing Crescent, 42% of the Moon is Illuminated
Jul 4
Waxing Crescent
Jul 5
First Quarter
Jul 12
Full
Jul 18
Last Quarter
Jul 26
New

Hourly Weather History & Observations

Time (CDT) Temp. Heat Index Dew Point Humidity Pressure Visibility Wind Dir Wind Speed Gust Speed Precip Events Conditions
12:15 AM 74.8 °F - 66.2 °F 74% 30.08 in 10.0 mi NNW 4.6 mph - N/A   Clear
12:35 AM 74.8 °F - 65.8 °F 73% 30.09 in 10.0 mi NW 4.6 mph - N/A   Clear
12:55 AM 73.8 °F - 66.0 °F 77% 30.09 in 10.0 mi NW 3.5 mph - N/A   Clear
1:15 AM 72.9 °F - 65.7 °F 78% 30.09 in 10.0 mi NNW 3.5 mph - N/A   Clear
1:35 AM 72.5 °F - 66.2 °F 81% 30.09 in 10.0 mi NW 3.5 mph - N/A   Clear
1:55 AM 72.0 °F - 65.7 °F 80% 30.08 in 10.0 mi NW 4.6 mph - N/A   Clear
2:15 AM 71.6 °F - 65.3 °F 80% 30.08 in 10.0 mi NW 5.8 mph - N/A   Clear
2:35 AM 70.9 °F - 65.1 °F 82% 30.08 in 10.0 mi NW 5.8 mph - N/A   Clear
2:55 AM 70.5 °F - 64.9 °F 82% 30.08 in 10.0 mi NNW 5.8 mph - N/A   Clear
3:15 AM 70.3 °F - 64.4 °F 81% 30.08 in 10.0 mi NNW 4.6 mph - N/A   Clear
3:35 AM 70.3 °F - 64.2 °F 81% 30.08 in 10.0 mi NNW 6.9 mph - N/A   Clear
3:55 AM 70.0 °F - 63.9 °F 81% 30.08 in 10.0 mi North 5.8 mph - N/A   Clear
4:15 AM 69.8 °F - 63.9 °F 81% 30.08 in 10.0 mi North 4.6 mph - N/A   Clear
4:35 AM 68.9 °F - 63.7 °F 83% 30.09 in 10.0 mi North 5.8 mph - N/A   Clear
4:55 AM 68.5 °F - 63.7 °F 84% 30.10 in 10.0 mi North 6.9 mph - N/A   Clear
5:15 AM 68.2 °F - 63.5 °F 85% 30.10 in 10.0 mi North 5.8 mph - N/A   Clear
5:35 AM 68.0 °F - 63.0 °F 84% 30.11 in 10.0 mi North 5.8 mph - N/A   Clear
5:55 AM 67.3 °F - 63.0 °F 86% 30.12 in 10.0 mi North 4.6 mph - N/A   Clear
6:15 AM 67.3 °F - 63.0 °F 86% 30.13 in 10.0 mi North 4.6 mph - N/A   Clear
6:35 AM 68.0 °F - 63.1 °F 84% 30.13 in 10.0 mi North 4.6 mph - N/A   Clear
6:55 AM 69.3 °F - 63.3 °F 81% 30.13 in 10.0 mi North 5.8 mph - N/A   Clear
7:15 AM 70.9 °F - 63.0 °F 76% 30.14 in 10.0 mi North 5.8 mph - N/A   Clear
7:35 AM 72.9 °F - 62.4 °F 70% 30.14 in 10.0 mi North 5.8 mph - N/A   Clear
7:55 AM 74.1 °F - 62.1 °F 66% 30.15 in 10.0 mi NNE 8.1 mph - N/A   Clear
8:15 AM 74.5 °F - 61.5 °F 64% 30.15 in 10.0 mi North 8.1 mph - N/A   Clear
8:35 AM 75.7 °F - 61.9 °F 62% 30.15 in 10.0 mi North 6.9 mph - N/A   Clear
8:55 AM 77.0 °F - 60.4 °F 56% 30.15 in 10.0 mi North 9.2 mph - N/A   Clear
9:15 AM 77.9 °F - 60.6 °F 55% 30.15 in 10.0 mi NNE 6.9 mph - N/A   Clear
9:35 AM 78.8 °F - 61.2 °F 55% 30.15 in 10.0 mi North 6.9 mph - N/A   Clear
9:55 AM 79.3 °F - 61.7 °F 55% 30.16 in 10.0 mi North 8.1 mph - N/A   Clear
10:15 AM 80.2 °F 81.2 °F 61.2 °F 52% 30.16 in 10.0 mi NE 10.4 mph - N/A   Clear
10:35 AM 81.0 °F 81.8 °F 61.2 °F 51% 30.16 in 10.0 mi NNW 9.2 mph - N/A   Clear
11:15 AM 81.9 °F 82.1 °F 59.2 °F 46% 30.16 in 10.0 mi NNW 5.8 mph - N/A   Clear
11:35 AM 82.2 °F 82.4 °F 59.5 °F 46% 30.16 in 10.0 mi North 6.9 mph - N/A   Clear
11:55 AM 82.9 °F 83.0 °F 59.4 °F 45% 30.15 in 10.0 mi NW 6.9 mph - N/A   Clear
12:15 PM 83.8 °F 83.8 °F 59.5 °F 44% 30.15 in 10.0 mi NNW 8.1 mph - N/A   Clear
12:35 PM 83.8 °F 83.6 °F 59.2 °F 43% 30.14 in 10.0 mi North 8.1 mph - N/A   Clear
12:55 PM 84.4 °F 84.0 °F 58.6 °F 42% 30.14 in 10.0 mi NNW 5.8 mph - N/A   Clear
1:15 PM 84.9 °F 84.4 °F 58.5 °F 41% 30.13 in 10.0 mi NNW 6.9 mph - N/A   Clear
1:35 PM 86.0 °F 84.9 °F 57.2 °F 37% 30.13 in 10.0 mi North 8.1 mph - N/A   Clear
1:55 PM 86.2 °F 84.7 °F 55.2 °F 35% 30.13 in 10.0 mi NW 5.8 mph - N/A   Clear
2:15 PM 87.1 °F 85.9 °F 57.2 °F 36% 30.12 in 10.0 mi NW 9.2 mph - N/A   Clear
2:35 PM 86.9 °F 85.1 °F 54.9 °F 33% 30.12 in 10.0 mi North 9.2 mph 16.1 mph N/A   Clear
2:55 PM 87.1 °F 85.5 °F 55.6 °F 34% 30.12 in 10.0 mi NW 9.2 mph - N/A   Clear
3:10 PM 87.1 °F 85.7 °F 56.5 °F 35% 30.11 in 10.0 mi NNW 6.9 mph - N/A   Clear
3:35 PM 87.3 °F 86.1 °F 57.6 °F 36% 30.10 in 10.0 mi NNW 8.1 mph - N/A   Clear
3:55 PM 88.0 °F 86.9 °F 57.6 °F 36% 30.10 in 10.0 mi North 5.8 mph - N/A   Clear
4:15 PM 87.8 °F 87.1 °F 59.0 °F 38% 30.09 in 10.0 mi North 5.8 mph - N/A   Clear
4:30 PM 87.3 °F 86.5 °F 59.0 °F 38% 30.09 in 10.0 mi NNW 8.1 mph - N/A   Clear
4:55 PM 87.4 °F 86.7 °F 58.6 °F 38% 30.09 in 10.0 mi North 9.2 mph - N/A   Clear
5:15 PM 87.6 °F 86.9 °F 58.8 °F 38% 30.09 in 10.0 mi NNW 9.2 mph - N/A   Clear
5:35 PM 87.3 °F 85.9 °F 56.7 °F 35% 30.08 in 10.0 mi NNW 10.4 mph - N/A   Clear
5:55 PM 86.9 °F 85.6 °F 56.7 °F 36% 30.09 in 10.0 mi North 6.9 mph - N/A   Clear
6:15 PM 86.2 °F 85.4 °F 58.6 °F 39% 30.09 in 10.0 mi NNW 6.9 mph - N/A   Clear
6:35 PM 85.5 °F 84.8 °F 58.6 °F 40% 30.09 in 10.0 mi North 10.4 mph - N/A   Clear
6:55 PM 84.6 °F 83.9 °F 57.9 °F 40% 30.10 in 10.0 mi North 8.1 mph - N/A   Clear
7:15 PM 83.1 °F 82.6 °F 57.0 °F 41% 30.10 in 10.0 mi North 6.9 mph - N/A   Clear
7:35 PM 81.5 °F 81.6 °F 58.1 °F 45% 30.10 in 10.0 mi North 4.6 mph - N/A   Clear
7:55 PM 79.9 °F - 59.0 °F 49% 30.10 in 10.0 mi North 3.5 mph - N/A   Clear
8:15 PM 78.6 °F - 59.4 °F 51% 30.11 in 10.0 mi North 3.5 mph - N/A   Clear
8:35 PM 77.4 °F - 59.9 °F 55% 30.11 in 10.0 mi North 4.6 mph - N/A   Clear
8:55 PM 76.3 °F - 59.9 °F 57% 30.12 in 10.0 mi North 4.6 mph - N/A   Clear
9:15 PM 75.6 °F - 60.1 °F 59% 30.12 in 10.0 mi North 4.6 mph - N/A   Clear
9:35 PM 74.7 °F - 60.6 °F 61% 30.12 in 10.0 mi North 5.8 mph - N/A   Clear
10:15 PM 73.6 °F - 61.2 °F 65% 30.13 in 10.0 mi North 3.5 mph - N/A   Clear
10:35 PM 73.2 °F - 61.2 °F 66% 30.13 in 10.0 mi North 3.5 mph - N/A   Clear
10:55 PM 72.7 °F - 61.3 °F 67% 30.13 in 10.0 mi NNW 3.5 mph - N/A   Clear
11:15 PM 71.4 °F - 61.9 °F 72% 30.13 in 10.0 mi NNW 5.8 mph - N/A   Clear
11:35 PM 70.9 °F - 62.6 °F 75% 30.13 in 10.0 mi NNW 4.6 mph - N/A   Clear
11:55 PM 70.7 °F - 62.4 °F 75% 30.13 in 10.0 mi NNW 4.6 mph - N/A   Clear